Regional Weather Roundup
Issued by NWS Bismarck, ND

Home | Current Version | Previous Version | Text Only | Print | Product List | Glossary On
Versions: 1 2 3 4 5 6 7 8 9 10 11 12 13 14 15 16 17 18 19 20 21 22 23 24 25 26 27 28 29 30 31 32 33 34 35 36 37 38 39 40 41 42 43 44 45 46 47 48 49 50
000
ASUS43 KBIS 231202
RWRBIS

NWR BROADCAST TEXT
NATIONAL WEATHER SERVICE BISMARCK ND
600 AM CST FRI FEB 23 2018

NOTE: "FAIR" INDICATES FEW OR NO CLOUDS BELOW 12,000 FEET WITH NO
SIGNIFICANT WEATHER AND/OR OBSTRUCTIONS TO VISIBILITY.


CITY           SKY/WX    TMP DP  RH WIND       PRES   REMARKS
WILLISTON      CLOUDY    -5 -10  79 S6        30.24S WCI -18
MINOT          CLOUDY     2  -2  83 W10       30.18S WCI -14
MINOT AFB      CLOUDY    -1  -4  85 NW13      30.18R BLWGSNOWWCI -19
BISMARCK       FAIR       5  -1  76 NW8       30.22R WCI  -8
DICKINSON      FAIR      -5 -10  79 NW13      30.15R WCI -24
GARRISON         N/A     -4  -9  79 W10       30.19R WCI -21
HETTINGER ARPT CLEAR     -7 -12  79 NW8       30.18R WCI -23
JAMESTOWN      LGT SNOW  13   9  84 NW16      30.14R FOG     WCI  -3
CARRINGTON     FAIR       7   3  85 NW14      30.17S WCI -10
HAZEN            N/A     -6  -9  84 SW6       30.24R WCI -18
LINTON           N/A      7   0  72 W8        30.20R WCI  -6
MANDAN         FAIR       3  -2  78 NW10      30.19R WCI -12
OAKES            N/A     16  16 100 NW8       30.15R WCI   5
RUGBY          FAIR      -8 -11  84 W9        30.17R WCI -25
STANLEY        CLOUDY     0  -2  92 W7        30.19R WCI -13
TIOGA          FLURRIES   0  -2  92 W7        30.18S WCI -13
WATFORD CITY   CLOUDY    -9 -13  84 SW7       30.23R WCI -24
$$

CITY           SKY/WX    TMP DP  RH WIND       PRES   REMARKS
GRAND FORKS    LGT SNOW  15  12  88 NW9       30.15S FOG     WCI   3
GRAND FORKS AF NOT AVBL
DEVILS LAKE    FAIR       5   1  83 W9        30.15S WCI  -9
FARGO          LGT SNOW  19  17  92 NW9       30.14R FOG     WCI   8
CANDO          CLOUDY     0  -4  85 W8        30.17S WCI -15
CAVALIER         N/A      7   1  78 NW3       30.15S
GRAFTON        FAIR      12   5  73 NW8       30.17S WCI   1
GWINNER          N/A     18  18 100 NW8       30.13R FOG     WCI   7
LANGDON        FAIR       3   1  92 NW10      30.12R WCI -12
ROLLA          FAIR       1  -4  78 NW9       30.11S WCI -14
WALHALLA       FAIR      10   1  67 NW5       30.16R WCI   2
$$

CITY           SKY/WX    TMP DP  RH WIND       PRES   REMARKS
ABERDEEN       PTCLDY    15  14  95 W5        30.18R WCI   8
MOBRIDGE       CLOUDY    13   9  84 NW10      30.16R WCI   0
BUFFALO          N/A     -6 -11  79 W9        30.07S WCI -23
RAPID CITY     CLEAR     -1  -6  79 CALM      30.14R
GLASGOW        MOCLDY   -18 -23  77 S5        30.20F WCI -31
SIDNEY         PTCLDY   -16 -21  78 CALM      30.25S
WOLF POINT     PTCLDY   -13 -19  75 SW12      30.25S WCI -33
GLENDIVE       CLEAR    -12 -18  74 CALM      30.21F
MILES CITY     PTCLDY   -15 -19  82 S7        30.22R WCI -31
BAKER          PTCLDY   -11 -14  86 CALM      30.17F
$$

CITY           SKY/WX    TMP DP  RH WIND       PRES   REMARKS
BILLINGS       CLEAR     -1  -6  79 SW13      30.12S WCI -19
GREAT FALLS    CLEAR    -12 -16  82 W3        30.05F
$$





USA.gov is the U.S. government's official web portal to all federal, state and local government web resources and services.